Location: Oak Glen
(34.0495°N, 116.9470°E)
Time: 16:02:49
(UTC-07:00)

OTV 5 (USA 277) - Pass Details

Date: 10 October 2017
Orbit: 404 x 417 km, 43.0° (Epoch: 07 September)

Event Time Altitude Azimuth Distance (km) Brightness Sun altitude
Rises 04:21:18 0° 259° (W) 2,343 ? -20.8°
Reaches altitude 10° 04:23:29 10° 267° (W) 1,482 ? -21.2°
Maximum altitude 04:26:39 38° 338° (NNW) 645 ? -21.9°
Enters shadow 04:26:43 38° 341° (NNW) 646 ? -21.9°
